Content
SEND FEEDBACK

Daily
Averages
Monthly
Summary
Switzerland

ZERMATT, SWITZERLAND


Home > Europe > Switzerland
Elevation: 5282 feet     Latitude: 46 01N     Longitude: 007 45E

WEATHER
 
SELECT A DAY
Number of Records: 133,663;   Date Range: 7/1/96 - 9/21/14
 
SHARE

PRINT THIS DATA

[ ← Previous Day ]
WEATHER ALMANAC - NOVEMBER 13, 2013
[ Next Day → ]
[ °C ]   °F
Weather ElementAverageHighLow
Temperature23.4 °F28.4 °F (1:55 pm)21 °F (7:00 pm)
Dewpoint-3.7 °F21.2 °F (9:55 pm)-22 °F (4:55 am)
Humidity35 %93 % (8:55 pm)4 % (5:00 am)
Barometer30.26 in30.27 in (12:55 am)30.21 in (5:55 am)
Wind Speed8.4 mph17.3 mph (9:55 pm)
Weather ElementAverage
Visibility12.1 mi
Wind DirectionESE (117 °)

Weather ElementTotal
Precipitation---
Heating Degree Days40.3 (Base 65)
Averaged from 41 records on November 13, 2013
WEATHER CONDITIONS BREAKOUT
WIND DIRECTION BREAKOUT
WEATHER BY HOUR - NOVEMBER 13, 2013
[ °C ]   °F
Local TimeTemperatureDewpointHumidityBarometerVisibilityWind DirectionWind SpeedGust SpeedPrecipitationEventsConditions
12:55 AM23.0 °F-9.4 °F24 %30.27 inEast (100°)8.1 mphClear
1:00 AM24.0 °F-9.0 °F11 %6.0 miEast (100°)8.1 mph
1:55 AM24.8 °F-14.8 °F17 %30.24 inENE (70°)11.5 mphClear
2:00 AM24.0 °F-15.0 °F6 %6.0 miENE (70°)11.5 mph
2:55 AM24.8 °F-18.4 °F14 %30.24 inEast (80°)6.9 mphClear
3:55 AM24.8 °F-20.2 °F13 %30.24 inENE (70°)11.5 mphClear
4:00 AM24.0 °F-19.0 °F5 %6.0 miENE (70°)11.5 mphClear
4:55 AM24.8 °F-22.0 °F12 %30.24 inENE (70°)11.5 mphClear
5:00 AM24.0 °F-22.0 °F4 %6.0 miENE (70°)11.5 mph
5:55 AM23.0 °F-22.0 °F13 %30.21 inENE (60°)10.4 mphClear
6:00 AM23.0 °F-22.0 °F4 %6.0 miENE (60°)10.4 mph
6:55 AM23.0 °F-16.6 °F17 %30.24 in6.2 miENE (60°)15.0 mphPartly Cloudy
7:00 AM23.0 °F-17.0 °F6 %12.0 miENE (60°)15.0 mphScattered Clouds
7:55 AM23.0 °F-16.6 °F17 %30.24 in6.2 miENE (60°)9.2 mphScattered Clouds
8:00 AM23.0 °F-17.0 °F6 %31.0 miENE (60°)9.2 mphPartly Cloudy
8:55 AM23.0 °F-14.8 °F18 %30.27 in6.2 miNE (40°)5.8 mphScattered Clouds
9:00 AM23.0 °F-16.0 °F7 %31.0 miNE (40°)5.8 mphPartly Cloudy
9:55 AM23.0 °F-14.8 °F18 %30.27 in6.2 miENE (60°)11.5 mphScattered Clouds
10:00 AM22.0 °F-15.0 °F8 %31.0 miENE (60°)11.5 mphMostly Cloudy
10:55 AM23.0 °F-11.2 °F22 %30.27 in6.2 miNE (50°)9.2 mphScattered Clouds
11:00 AM23.0 °F-10.0 °F10 %31.0 miNE (50°)9.2 mphMostly Cloudy
11:55 AM23.0 °F-5.8 °F28 %30.27 in6.2 miENE (60°)9.2 mphScattered Clouds
12:55 PM23.0 °F-0.4 °F36 %30.27 in6.2 miENE (60°)5.8 mphScattered Clouds
1:00 PM23.0 °F-1.0 °F21 %31.0 miENE (60°)5.8 mphMostly Cloudy
1:55 PM28.4 °F-9.4 °F19 %30.27 in6.2 miVariable1.2 mphMostly Cloudy
2:00 PM28.0 °F-9.0 °F9 %31.0 mi°1.2 mphScattered Clouds
2:55 PM26.6 °F-4.0 °F26 %30.27 in6.2 miSW (230°)6.9 mphScattered Clouds
3:55 PM24.8 °F6.8 °F46 %30.27 in6.2 miWSW (240°)5.8 mphPartly Cloudy
4:00 PM24.0 °F7.0 °F33 %25.0 miWSW (240°)5.8 mphScattered Clouds
4:55 PM23.0 °F8.6 °F54 %30.27 in6.2 miVariable3.5 mphPartly Cloudy
5:55 PM23.0 °F14.0 °F68 %30.27 in6.2 miWSW (240°)2.3 mphPartly Cloudy
6:00 PM23.0 °F14.0 °F58 %6.0 miWSW (240°)2.3 mphScattered Clouds
6:55 PM21.2 °F15.8 °F80 %30.27 in6.2 miWest (260°)5.8 mphPartly Cloudy
7:00 PM21.0 °F16.0 °F75 %6.0 miWest (260°)5.8 mphScattered Clouds
7:55 PM21.2 °F17.6 °F86 %30.27 inWSW (240°)6.9 mphClear
8:55 PM21.2 °F19.4 °F93 %30.27 inWSW (250°)6.9 mphClear
9:55 PM23.0 °F21.2 °F93 %30.27 inSSE (150°)17.3 mphClear
10:00 PM22.0 °F20.0 °F91 %9.0 miSSE (150°)17.3 mphClear
10:55 PM23.0 °F21.2 °F93 %30.27 inSSW (210°)6.9 mphClear
11:00 PM22.0 °F20.0 °F90 %9.0 miSSW (210°)6.9 mphClear
11:55 PM23.0 °F19.4 °F86 %30.27 inSW (220°)8.1 mphClear
Hourly data recorded from LIMH, located miles away from Zermatt, Switzerland







STORIES FROM OUR PARTNERS